Location: Star Hoppers Observatory
(42.7905°N, 83.6127°W)
Time: 05:25:37
(UTC-04:00)

Amateur Radio Satellites - All Passes

Search period start: 19 August 2017 04:55
Search period end: 20 August 2017 04:55
Location: Star Hoppers Observatory, 42.7905°N, 83.6127°W

Satellite Date Start Highest point End Downlink Frequencies (MHz)
Time Altitude Azimuth
AO-7 19 Aug 04:56:15 05:04:27 57° 103° (ESE) 05:12:32 .
STARS 19 Aug 05:32:39 05:36:30 30° 68° (ENE) 05:40:22 437.465
BEESAT 3 19 Aug 05:47:05 05:49:58 19° 112° (ESE) 05:52:51 437.485
YUBILEINY 19 Aug 05:48:42 05:56:01 32° 277° (W) 06:03:19 435.215
AO-85 19 Aug 05:56:48 05:59:03 15° 111° (ESE) 06:01:18 145.980
ITAMSAT 1 19 Aug 05:57:00 06:01:54 44° 291° (WNW) 06:06:46 435.822/435.867
CUBESAT XI-V 19 Aug 06:12:19 06:15:59 23° 267° (W) 06:19:43 437.345
DOVE 4 19 Aug 06:23:14 06:27:16 29° 94° (E) 06:31:04 437.250
KKS-1 19 Aug 06:24:14 06:28:15 32° 263° (W) 06:32:17 437.445
AO-7 19 Aug 06:49:30 06:56:51 36° 302° (WNW) 07:04:09 .
KAITUO 1B 19 Aug 06:54:51 06:57:01 14° 92° (E) 06:59:10 145.475/437.950
LilacSat-2 19 Aug 07:08:16 07:11:42 30° 96° (E) 07:15:07 437.200
STARS 19 Aug 07:09:08 07:12:49 26° 264° (W) 07:16:31 437.465
XW-2D 19 Aug 07:15:04 07:18:36 34° 97° (E) 07:22:07 145.860 - 145.880
SO-50 19 Aug 07:16:45 07:17:59 11° 31° (NNE) 07:19:13 436.795
PCSat 19 Aug 07:22:59 07:26:10 16° 38° (NE) 07:29:22 145.827
BEESAT 3 19 Aug 07:23:25 07:27:14 41° 309° (NW) 07:31:06 437.485
XW-2B 19 Aug 07:25:55 07:29:37 44° 99° (E) 07:33:19 145.730 - 145.750
NUDT-PHONESAT 19 Aug 07:29:42 07:33:11 36° 98° (E) 07:36:40 437.300
STRAND 1 19 Aug 07:31:00 07:35:44 39° 69° (ENE) 07:40:28 437.568
BEESAT 2 19 Aug 07:32:01 07:36:01 83° 121° (ESE) 07:40:05 435.950
AO-85 19 Aug 07:35:13 07:39:02 48° 308° (NW) 07:42:51 145.980
CUTE 1.7 + AOD 2 19 Aug 07:35:20 07:36:24 11° 89° (E) 07:37:29 437.475
XW-2C 19 Aug 07:44:47 07:48:39 80° 104° (ESE) 07:52:29 145.795 - 145.815
CUTE-I 19 Aug 07:50:40 07:55:58 64° 102° (ESE) 08:01:13 437.470
XW-2F 19 Aug 07:58:42 08:02:32 73° 283° (WNW) 08:06:21 145.980 - 146.000
DOVE 4 19 Aug 08:00:58 08:04:52 27° 293° (WNW) 08:08:35 437.250
SEEDS 19 Aug 08:25:04 08:28:35 24° 94° (E) 08:32:04 437.485
KAITUO 1B 19 Aug 08:27:36 08:31:11 40° 288° (WNW) 08:34:45 145.475/437.950
HO-68 19 Aug 08:35:31 08:42:30 52° 101° (E) 08:49:25 435.675
LilacSat-2 19 Aug 08:42:53 08:45:48 21° 292° (WNW) 08:48:43 437.200
XW-2D 19 Aug 08:49:53 08:52:31 18° 293° (WNW) 08:55:09 145.860 - 145.880
NO-84 19 Aug 08:53:43 08:56:22 27° 31° (NNE) 08:59:10 435.350 FM
SO-50 19 Aug 08:55:00 08:59:28 53° 52° (NE) 09:03:58 436.795
UWE-3 19 Aug 08:55:59 08:59:32 25° 95° (E) 09:03:08 435.000/436.395/437.385
CUBEBUG 2 19 Aug 08:58:41 09:02:44 46° 99° (E) 09:06:50 437.445
FO-29 19 Aug 08:58:49 09:05:19 33° 64° (ENE) 09:11:19 435.910
XW-2B 19 Aug 09:01:20 09:03:25 14° 295° (WNW) 09:05:31 145.730 - 145.750
XW-2A 19 Aug 09:03:03 09:06:22 53° 100° (E) 09:09:43 145.665 - 145.685
NUDT-PHONESAT 19 Aug 09:04:23 09:06:47 16° 294° (WNW) 09:09:10 437.300
PCSat 19 Aug 09:05:04 09:10:31 75° 59° (ENE) 09:15:56 145.827
CUTE 1.7 + AOD 2 19 Aug 09:08:24 09:12:41 69° 285° (WNW) 09:16:57 437.475
STRAND 1 19 Aug 09:10:46 09:15:00 26° 265° (W) 09:19:15 437.568
BEESAT 2 19 Aug 09:12:09 09:14:20 14° 322° (NW) 09:16:31 435.950
Oscar 11 19 Aug 09:15:01 09:17:36 15° 91° (E) 09:20:10 .
AAUSAT CUBESAT 2 19 Aug 09:16:19 09:20:17 40° 98° (E) 09:24:13 437.432
UNISAT 6 19 Aug 09:28:58 09:31:33 16° 64° (ENE) 09:34:07 437.425
CUTE-I 19 Aug 09:31:54 09:35:29 19° 299° (WNW) 09:39:02 437.470
ZACube-1 19 Aug 09:39:54 09:43:57 42° 98° (E) 09:48:06 437.345
SEEDS 19 Aug 10:00:32 10:04:15 30° 291° (WNW) 10:07:57 437.485
AO-73 19 Aug 10:02:11 10:06:27 68° 102° (ESE) 10:10:46 145.935
TIGRISAT 19 Aug 10:03:10 10:07:01 31° 69° (ENE) 10:10:48 435.000
PRISM 19 Aug 10:09:09 10:12:43 28° 68° (ENE) 10:16:19 437.425
RS-15 19 Aug 10:14:16 10:20:01 15° 94° (E) 10:25:46 29.354- 29.394
HO-68 19 Aug 10:23:44 10:29:56 33° 299° (WNW) 10:36:07 435.675
NO-84 19 Aug 10:30:54 10:33:47 33° 226° (SW) 10:36:52 435.350 FM
UWE-3 19 Aug 10:32:21 10:35:57 28° 291° (WNW) 10:39:38 435.000/436.395/437.385
SO-50 19 Aug 10:36:22 10:39:33 19° 249° (WSW) 10:42:45 436.795
CUBEBUG 2 19 Aug 10:36:24 10:39:00 16° 295° (WNW) 10:41:38 437.445
DELFI C3 19 Aug 10:39:59 10:43:31 29° 96° (E) 10:47:00 145.870
Tancredo 1 19 Aug 10:40:19 10:43:05 40° 140° (SE) 10:45:51 437.200
FO-29 19 Aug 10:42:33 10:50:03 55° 260° (W) 10:56:57 435.910
Oscar 11 19 Aug 10:49:47 10:54:00 50° 288° (WNW) 10:58:12 .
PCSat 19 Aug 10:50:08 10:53:14 16° 256° (WSW) 10:56:19 145.827
Max Valier Satellite 19 Aug 10:51:04 10:54:20 29° 96° (E) 10:57:36 145.860
AAUSAT CUBESAT 2 19 Aug 10:52:31 10:55:26 18° 294° (WNW) 10:58:19 437.432
O/OREOS (USA 219) 19 Aug 11:03:17 11:07:45 90° 117° (ESE) 11:12:16 437.305
UNISAT 6 19 Aug 11:03:37 11:07:52 52° 260° (W) 11:12:04 437.425
M-CUBED/EXP-1 PRIME 19 Aug 11:15:28 11:19:34 37° 64° (ENE) 11:23:51 437.505
ISS 19 Aug 11:16:38 11:19:27 26° 136° (SE) 11:22:14 437.550
ZACube-1 19 Aug 11:17:01 11:19:57 18° 294° (WNW) 11:22:55 437.345
nSIGHT-1 19 Aug 11:27:14 11:30:14 34° 138° (SE) 11:33:14 .
AIST 2D 19 Aug 11:32:13 11:35:20 32° 72° (ENE) 11:38:30 435.315
TIGRISAT 19 Aug 11:40:13 11:43:43 23° 265° (W) 11:47:11 435.000
AO-73 19 Aug 11:40:24 11:42:09 12° 298° (WNW) 11:43:55 145.935
PRISM 19 Aug 11:44:31 11:47:57 25° 264° (W) 11:51:25 437.425
EO-88 19 Aug 11:49:04 11:52:43 64° 285° (WNW) 11:56:21 145.990 - 145.960
LO-87 19 Aug 11:52:47 11:55:00 16° 93° (E) 11:57:11 145.935 - 145.965
NANOSAT C BR1 19 Aug 11:59:48 12:03:27 30° 69° (ENE) 12:07:05 145.865
POLYITAN 1 19 Aug 12:02:29 12:06:17 35° 70° (ENE) 12:10:08 437.675
DELFI C3 19 Aug 12:15:01 12:18:07 22° 293° (WNW) 12:21:10 145.870
Tancredo 1 19 Aug 12:15:47 12:18:22 28° 338° (NNW) 12:20:57 437.200
QB50P2 19 Aug 12:17:08 12:21:15 57° 73° (ENE) 12:25:24 145.880/145.840
RS-15 19 Aug 12:17:57 12:29:57 66° 115° (ESE) 12:42:05 29.354- 29.394
EO-79 19 Aug 12:18:32 12:22:38 53° 73° (ENE) 12:26:44 145.935-145.965
Max Valier Satellite 19 Aug 12:25:19 12:27:59 19° 293° (WNW) 12:30:39 145.860
Oscar 19 19 Aug 12:44:14 12:46:56 14° 59° (ENE) 12:49:39 437.125/150
O/OREOS (USA 219) 19 Aug 12:46:16 12:47:52 12° 312° (NW) 12:49:28 437.305
M-CUBED/EXP-1 PRIME 19 Aug 12:50:20 12:54:01 25° 261° (W) 12:57:50 437.505
DUCHIFAT 1 19 Aug 12:50:45 12:54:55 84° 255° (WSW) 12:59:07 145.980
ISS 19 Aug 12:52:39 12:55:47 43° 333° (NNW) 12:58:57 437.550
BUGSAT 1 19 Aug 12:58:48 13:02:28 32° 70° (ENE) 13:06:06 437.445
nSIGHT-1 19 Aug 13:03:33 13:06:36 35° 336° (NNW) 13:09:39 .
AIST 2D 19 Aug 13:06:41 13:08:39 14° 268° (W) 13:10:39 435.315
ESTCUBE 1 19 Aug 13:09:09 13:13:44 80° 102° (ESE) 13:18:16 437.505/2401.250
VELOX 1 19 Aug 13:24:30 13:28:04 23° 94° (E) 13:31:35 145.980
LO-87 19 Aug 13:25:21 13:28:30 31° 289° (WNW) 13:31:39 145.935 - 145.965
NANOSAT C BR1 19 Aug 13:35:45 13:39:08 24° 265° (W) 13:42:33 145.865
POLYITAN 1 19 Aug 13:39:04 13:42:10 20° 266° (W) 13:45:18 437.675
Gurwin Techsat 1B 19 Aug 13:40:48 13:45:24 31° 66° (ENE) 13:50:01 435.225
SPROUT 19 Aug 13:45:35 13:49:42 49° 100° (E) 13:53:49 437.525
Tancredo 1 19 Aug 13:52:31 13:54:16 14° 357° (N) 13:56:01 437.200
QB50P2 19 Aug 13:55:31 13:57:23 13° 270° (W) 13:59:15 145.880/145.840
EO-79 19 Aug 13:56:37 13:58:42 13° 269° (W) 14:00:48 145.935-145.965
BEESAT 3 19 Aug 14:02:27 14:05:16 18° 42° (NE) 14:08:03 437.485
AO-7 19 Aug 14:06:52 14:12:31 21° 49° (NE) 14:18:09 .
BEESAT 2 19 Aug 14:13:41 14:14:21 10° 34° (NE) 14:15:01 435.950
Oscar 19 19 Aug 14:20:25 14:25:33 81° 256° (WSW) 14:30:46 437.125/150
AO-85 19 Aug 14:24:58 14:28:19 22° 45° (NE) 14:31:49 145.980
ISS 19 Aug 14:30:31 14:32:53 18° 353° (N) 14:35:15 437.550
50 SAT 19 Aug 14:30:51 14:34:08 46° 100° (E) 14:37:22 437.505
RS-15 19 Aug 14:31:26 14:43:09 47° 320° (NW) 14:54:54 29.354- 29.394
BUGSAT 1 19 Aug 14:34:45 14:37:52 21° 266° (W) 14:40:58 437.445
nSIGHT-1 19 Aug 14:41:23 14:43:40 17° 356° (N) 14:45:56 .
ESTCUBE 1 19 Aug 14:48:12 14:49:51 12° 300° (WNW) 14:51:32 437.505/2401.250
UKube-1 19 Aug 14:49:42 14:53:40 35° 98° (E) 14:57:37 .
VELOX 1 19 Aug 15:00:34 15:04:33 33° 291° (WNW) 15:08:30 145.980
YUBILEINY 19 Aug 15:03:49 15:06:16 11° 72° (ENE) 15:08:43 435.215
DX 1 19 Aug 15:07:27 15:11:50 86° 103° (ESE) 15:16:10 434.975-435.025
Gurwin Techsat 1B 19 Aug 15:20:22 15:25:14 36° 263° (W) 15:30:08 435.225
SPROUT 19 Aug 15:22:38 15:25:12 16° 296° (WNW) 15:27:46 437.525
Tancredo 1 19 Aug 15:27:54 15:30:15 21° 18° (NNE) 15:32:35 437.200
ITAMSAT 1 19 Aug 15:36:35 15:41:25 40° 68° (ENE) 15:46:15 435.822/435.867
BEESAT 3 19 Aug 15:39:14 15:43:10 54° 240° (WSW) 15:46:59 437.485
BEESAT 2 19 Aug 15:48:53 15:52:56 62° 54° (NE) 15:56:55 435.950
AO-7 19 Aug 15:55:41 16:04:02 80° 69° (ENE) 16:12:26 .
AO-85 19 Aug 16:04:44 16:08:55 49° 241° (WSW) 16:13:24 145.980
50 SAT 19 Aug 16:05:34 16:06:23 11° 296° (WNW) 16:07:11 437.505
ISS 19 Aug 16:07:37 16:10:12 21° 13° (NNE) 16:12:48 437.550
MOZHAYETS 4 19 Aug 16:14:30 16:18:28 28° 95° (E) 16:22:25
BEESAT 19 Aug 16:15:47 16:20:06 33° 97° (E) 16:24:23 436.000
nSIGHT-1 19 Aug 16:18:11 16:20:52 23° 16° (NNE) 16:23:32 .
UKube-1 19 Aug 16:26:10 16:29:29 22° 295° (WNW) 16:32:48 .
DX 1 19 Aug 16:46:35 16:47:19 10° 301° (WNW) 16:48:02 434.975-435.025
ITUPSAT 1 19 Aug 16:48:42 16:53:29 70° 102° (ESE) 16:58:14 437.325
RS-15 19 Aug 16:50:04 16:59:52 26° 353° (N) 17:09:28 29.354- 29.394
YUBILEINY 19 Aug 16:52:33 17:01:12 65° 92° (E) 17:09:49 435.215
Tancredo 1 19 Aug 17:02:48 17:05:42 71° 216° (SW) 17:08:34 437.200
ITAMSAT 1 19 Aug 17:16:39 17:20:58 26° 265° (W) 17:25:19 435.822/435.867
DOVE 4 19 Aug 17:28:09 17:32:59 37° 70° (ENE) 17:37:44 437.250
BEESAT 2 19 Aug 17:28:21 17:30:09 13° 251° (WSW) 17:31:56 435.950
CUTE-I 19 Aug 17:35:55 17:39:11 17° 59° (ENE) 17:42:27 437.470
ISS 19 Aug 17:43:49 17:47:06 75° 32° (NNE) 17:50:21 437.550
AO-7 19 Aug 17:51:26 17:57:37 23° 268° (W) 18:03:51 .
MOZHAYETS 4 19 Aug 17:51:33 17:55:35 31° 292° (WNW) 17:59:38
LilacSat-2 19 Aug 17:51:36 17:54:07 17° 66° (ENE) 17:56:39 437.200
BEESAT 19 Aug 17:53:43 17:57:45 28° 294° (WNW) 18:01:46 436.000
nSIGHT-1 19 Aug 17:54:18 17:57:34 83° 214° (SW) 18:00:47 .
XW-2D 19 Aug 17:57:34 18:00:17 19° 67° (ENE) 18:03:01 145.860 - 145.880
CUBESAT XI-V 19 Aug 18:06:34 18:11:20 83° 104° (ESE) 18:16:02 437.345
XW-2B 19 Aug 18:08:10 18:11:13 24° 69° (ENE) 18:14:18 145.730 - 145.750
NUDT-PHONESAT 19 Aug 18:10:12 18:12:49 19° 67° (ENE) 18:15:26 437.300
KKS-1 19 Aug 18:13:46 18:17:59 42° 99° (E) 18:22:11 437.445
XW-2C 19 Aug 18:26:37 18:30:07 40° 72° (ENE) 18:33:40 145.795 - 145.815
ITUPSAT 1 19 Aug 18:28:07 18:30:44 15° 299° (WNW) 18:33:20 437.325
XW-2F 19 Aug 18:39:54 18:43:32 56° 74° (ENE) 18:47:14 145.980 - 146.000
YUBILEINY 19 Aug 18:51:13 18:58:37 29° 293° (WNW) 19:06:02 435.215
STARS 19 Aug 18:56:38 19:00:54 50° 100° (E) 19:05:07 437.465
HO-68 19 Aug 19:04:56 19:11:33 42° 64° (ENE) 19:18:10 435.675
DOVE 4 19 Aug 19:06:04 19:10:39 29° 265° (W) 19:15:12 437.250
RS-15 19 Aug 19:06:36 19:17:26 34° 28° (NNE) 19:27:48 29.354- 29.394
KAITUO 1B 19 Aug 19:07:38 19:11:20 81° 258° (WSW) 19:15:05 145.475/437.950
CUTE-I 19 Aug 19:13:15 19:18:36 74° 257° (WSW) 19:23:59 437.470
SEEDS 19 Aug 19:17:48 19:20:48 19° 66° (ENE) 19:23:50 437.485
ISS 19 Aug 19:21:27 19:23:10 14° 229° (SW) 19:24:53 437.550
LilacSat-2 19 Aug 19:24:40 19:28:07 34° 263° (W) 19:31:37 437.200
XW-2D 19 Aug 19:30:57 19:34:16 30° 264° (W) 19:37:37 145.860 - 145.880
O/OREOS (USA 219) 19 Aug 19:33:47 19:37:21 22° 56° (NE) 19:40:56 437.305
XW-2A 19 Aug 19:35:32 19:37:59 20° 69° (ENE) 19:40:29 145.665 - 145.685
XW-2B 19 Aug 19:42:17 19:45:20 23° 265° (W) 19:48:24 145.730 - 145.750
STRAND 1 19 Aug 19:42:38 19:44:30 12° 88° (E) 19:46:23 437.568
NUDT-PHONESAT 19 Aug 19:43:17 19:46:30 29° 263° (W) 19:49:46 437.300
CUBESAT XI-V 19 Aug 19:46:10 19:48:00 12° 300° (WNW) 19:49:50 437.345
KKS-1 19 Aug 19:51:03 19:54:15 20° 296° (WNW) 19:57:25 437.445
UWE-3 19 Aug 19:54:02 19:57:20 23° 68° (ENE) 20:00:36 435.000/436.395/437.385
CUBEBUG 2 19 Aug 19:57:22 20:01:25 42° 72° (ENE) 20:05:24 437.445
CUTE 1.7 + AOD 2 19 Aug 20:01:14 20:05:28 90° 94° (E) 20:09:45 437.475
XW-2C 19 Aug 20:02:29 20:04:30 14° 269° (W) 20:06:32 145.795 - 145.815
AAUSAT CUBESAT 2 19 Aug 20:07:02 20:10:38 29° 69° (ENE) 20:14:17 437.432
Oscar 11 19 Aug 20:11:13 20:13:25 14° 63° (ENE) 20:15:37 .
XW-2F 19 Aug 20:17:46 20:18:01 10° 271° (W) 20:18:17 145.980 - 146.000
STARS 19 Aug 20:34:05 20:36:50 17° 297° (WNW) 20:39:33 437.465
ZACube-1 19 Aug 20:36:29 20:40:16 35° 71° (ENE) 20:44:03 437.345
SEEDS 19 Aug 20:52:16 20:56:12 38° 262° (W) 21:00:11 437.485
HO-68 19 Aug 20:52:39 20:59:15 40° 262° (W) 21:05:55 435.675
AO-73 19 Aug 20:58:15 21:02:18 55° 74° (ENE) 21:06:21 145.935
XW-2A 19 Aug 21:07:58 21:10:37 22° 265° (W) 21:13:17 145.665 - 145.685
O/OREOS (USA 219) 19 Aug 21:12:40 21:16:55 41° 254° (WSW) 21:21:11 437.305
STRAND 1 19 Aug 21:19:11 21:24:18 82° 285° (WNW) 21:29:23 437.568
RS-15 19 Aug 21:19:44 21:31:56 85° 56° (NE) 21:43:24 29.354- 29.394
DELFI C3 19 Aug 21:26:22 21:29:18 20° 67° (ENE) 21:32:15 145.870
UWE-3 19 Aug 21:29:54 21:33:39 31° 264° (W) 21:37:22 435.000/436.395/437.385
Max Valier Satellite 19 Aug 21:31:33 21:33:46 16° 66° (ENE) 21:35:59 145.860
CUBEBUG 2 19 Aug 21:35:24 21:38:13 17° 268° (W) 21:41:01 437.445
AAUSAT CUBESAT 2 19 Aug 21:42:42 21:46:05 24° 266° (W) 21:49:30 437.432
Oscar 11 19 Aug 21:44:48 21:49:03 60° 260° (W) 21:53:19 .
FO-29 19 Aug 21:53:28 21:57:10 18° 89° (E) 22:00:41 435.910
ZACube-1 19 Aug 22:13:39 22:16:40 19° 267° (W) 22:19:40 437.345
EO-88 19 Aug 22:27:04 22:30:37 56° 75° (ENE) 22:34:13 145.990 - 145.960
AO-73 19 Aug 22:37:07 22:38:53 12° 270° (W) 22:40:39 145.935
UNISAT 6 19 Aug 22:54:19 22:58:03 28° 96° (E) 23:01:49 437.425
DELFI C3 19 Aug 23:00:12 23:03:50 33° 263° (W) 23:07:30 145.870
STRAND 1 19 Aug 23:01:02 23:02:38 11° 303° (WNW) 23:04:15 437.568
Max Valier Satellite 19 Aug 23:03:56 23:07:18 35° 262° (W) 23:10:42 145.860
SO-50 19 Aug 23:12:25 23:14:28 13° 109° (ESE) 23:16:32 436.795
PRISM 19 Aug 23:24:09 23:28:04 39° 99° (E) 23:31:54 437.425
TIGRISAT 19 Aug 23:29:26 23:33:42 63° 101° (E) 23:38:02 435.000
RS-15 19 Aug 23:33:42 23:42:51 27° 259° (W) 23:51:41 29.354- 29.394
FO-29 19 Aug 23:37:16 23:42:50 57° 289° (WNW) 23:47:58 435.910
PCSat 19 Aug 23:47:13 23:52:32 59° 115° (ESE) 23:57:52 145.827
LO-87 20 Aug 00:01:14 00:04:50 75° 259° (WSW) 00:08:26 145.935 - 145.965
ESTCUBE 1 20 Aug 00:09:00 00:13:30 79° 75° (ENE) 00:18:03 437.505/2401.250
VELOX 1 20 Aug 00:22:25 00:25:59 24° 66° (ENE) 00:29:34 145.980
M-CUBED/EXP-1 PRIME 20 Aug 00:28:07 00:31:32 22° 98° (E) 00:34:47 437.505
AIST 2D 20 Aug 00:29:05 00:32:24 36° 98° (E) 00:35:42 435.315
UNISAT 6 20 Aug 00:31:05 00:34:41 26° 292° (WNW) 00:38:20 437.425
DUCHIFAT 1 20 Aug 00:35:12 00:37:27 14° 91° (E) 00:39:42 145.980
SPROUT 20 Aug 00:39:21 00:43:21 41° 71° (ENE) 00:47:21 437.525
SO-50 20 Aug 00:49:50 00:54:20 72° 305° (NW) 00:58:52 436.795
PRISM 20 Aug 01:00:09 01:03:02 19° 295° (WNW) 01:05:54 437.425
50 SAT 20 Aug 01:03:01 01:05:31 19° 68° (ENE) 01:08:02 437.505
TIGRISAT 20 Aug 01:07:52 01:09:54 13° 298° (WNW) 01:11:56 435.000
NANOSAT C BR1 20 Aug 01:18:04 01:22:08 48° 99° (E) 01:26:11 145.865
POLYITAN 1 20 Aug 01:21:30 01:25:40 59° 101° (E) 01:29:49 437.675
PCSat 20 Aug 01:31:55 01:36:19 25° 315° (NW) 01:40:44 145.827
QB50P2 20 Aug 01:36:32 01:40:46 84° 284° (WNW) 01:44:59 145.880/145.840
EO-79 20 Aug 01:37:41 01:41:54 90° 284° (WNW) 01:46:06 145.935-145.965
UKube-1 20 Aug 01:44:41 01:48:35 34° 69° (ENE) 01:52:29 .
NO-84 20 Aug 01:49:17 01:50:59 14° 129° (SE) 01:52:39 435.350 FM
ESTCUBE 1 20 Aug 01:50:27 01:50:52 10° 272° (W) 01:51:16 437.505/2401.250
VELOX 1 20 Aug 01:58:12 02:02:15 34° 263° (W) 02:06:21 145.980
Gurwin Techsat 1B 20 Aug 01:59:18 01:59:42 10° 87° (E) 02:00:06 435.225
M-CUBED/EXP-1 PRIME 20 Aug 02:01:59 02:06:03 36° 296° (WNW) 02:09:51 437.505
DX 1 20 Aug 02:03:14 02:07:37 82° 75° (ENE) 02:12:01 434.975-435.025
AIST 2D 20 Aug 02:03:16 02:05:17 15° 294° (WNW) 02:07:19 435.315
DUCHIFAT 1 20 Aug 02:09:21 02:13:24 50° 287° (WNW) 02:17:26 145.980
BUGSAT 1 20 Aug 02:14:18 02:18:12 48° 100° (E) 02:22:05 437.445
SPROUT 20 Aug 02:16:31 02:19:24 18° 267° (W) 02:22:20 437.525
ITUPSAT 1 20 Aug 02:22:17 02:23:40 11° 58° (ENE) 02:25:03 437.325
Oscar 19 20 Aug 02:31:23 02:36:05 33° 97° (E) 02:40:45 437.125/150
SO-50 20 Aug 02:33:25 02:35:37 13° 326° (NW) 02:37:48 436.795
50 SAT 20 Aug 02:35:13 02:38:02 24° 264° (W) 02:40:54 437.505
NANOSAT C BR1 20 Aug 02:54:54 02:57:28 16° 296° (WNW) 03:00:00 145.865
POLYITAN 1 20 Aug 02:58:53 03:00:58 14° 297° (WNW) 03:03:01 437.675
YUBILEINY 20 Aug 03:02:03 03:09:43 33° 69° (ENE) 03:17:19 435.215
MOZHAYETS 4 20 Aug 03:17:07 03:21:01 29° 68° (ENE) 03:24:57
UKube-1 20 Aug 03:21:14 03:24:39 22° 265° (W) 03:28:05 .
BEESAT 20 Aug 03:22:43 03:27:11 42° 70° (ENE) 03:31:40 436.000
NO-84 20 Aug 03:25:20 03:28:05 42° 325° (NW) 03:30:49 435.350 FM
Gurwin Techsat 1B 20 Aug 03:35:03 03:40:24 84° 102° (ESE) 03:45:44 435.225
CUBESAT XI-V 20 Aug 03:37:20 03:38:17 11° 59° (ENE) 03:39:14 437.345
ITAMSAT 1 20 Aug 03:50:27 03:52:34 12° 89° (E) 03:54:40 435.822/435.867
BUGSAT 1 20 Aug 03:50:55 03:53:10 15° 296° (WNW) 03:55:24 437.445
ITUPSAT 1 20 Aug 03:55:58 04:00:43 88° 81° (E) 04:05:31 437.325
AO-7 20 Aug 03:57:28 04:03:56 24° 93° (E) 04:10:19 .
Oscar 19 20 Aug 04:10:45 04:15:19 32° 294° (WNW) 04:19:53 437.125/150
